Tracking 19146 objects as of 23-Apr-2018
HD Live streaming from Space Station
objects crossing your sky now

GLOBALSTAR M026

Track GLOBALSTAR M026 now!
10-day predictions
GLOBALSTAR M026 is classified as:


NORAD ID: 25873
Int'l Code: 1999-041B
Perigee: 2,134.1 km
Apogee: 2,134.7 km
Inclination: 52.0 °
Period: 130.1 minutes
Semi major axis: 8505 km
RCS: 2.6024 m2 (large)
Launch date: July 25, 1999
Source: Globalstar (GLOB)
Launch site: AIR FORCE EASTERN TEST RANGE (AFETR)
aabbcc
Your satellite tracking list
Your tracking list is empty




NASA's NSSDC Master Catalog

Two Line Element Set (TLE):
1 25873U 99041B   18112.56387331 -.00000128 +00000-0 -23491-2 0  9991
2 25873 052.0002 266.4744 0000313 168.8429 266.4843 11.06775800859385
Source of the keplerian elements: AFSPC